| time (UTC) | temp C | wind direction | speed KPH | gust KPH | rain 1hr cm | rain 24hr cm | rain mn cm | humidity % | barometer mb |
| 20260902203759 | 25 | 270 | 0.0 | 0.0 | 0.00 | 4.34 | 0.00 | 76 | 1002.0 |
| 20260902202014 | 25 | 270 | 0.0 | 0.0 | 0.00 | 4.34 | 0.00 | 79 | 1002.0 |
| 20260902200758 | 25 | 270 | 0.0 | 0.0 | 0.00 | 4.34 | 0.00 | 79 | 1002.0 |
| 20260902200513 | 25 | 270 | 0.0 | 0.0 | 0.00 | 4.34 | 0.00 | 79 | 1002.0 |
| 20260902195014 | 25 | 270 | 0.0 | 0.0 | 0.00 | 4.34 | 0.00 | 79 | 1002.0 |
| 20260902193758 | 25 | 270 | 0.0 | 0.0 | 0.00 | 4.34 | 0.00 | 79 | 1002.0 |
| 20260902193514 | 25 | 270 | 0.0 | 0.0 | 0.00 | 4.34 | 0.00 | 79 | 1002.0 |
| 20260902192013 | 26 | 270 | 0.0 | 0.0 | 0.00 | 4.34 | 0.00 | 79 | 1002.0 |
| 20260902190759 | 26 | 270 | 0.0 | 0.0 | 0.00 | 4.34 | 0.00 | 79 | 1002.0 |
| 20260902190514 | 25 | 270 | 0.0 | 0.0 | 0.00 | 4.34 | 0.00 | 79 | 1002.0 |
| 20260902185014 | 26 | 270 | 0.0 | 0.0 | 0.00 | 4.34 | 0.00 | 79 | 1003.0 |
| 20260902183759 | 25 | 270 | 0.0 | 0.0 | 0.00 | 4.34 | 0.00 | 80 | 1003.0 |
| 20260902183514 | 25 | 270 | 0.0 | 0.0 | 0.00 | 4.34 | 0.00 | 80 | 1003.0 |
| 20260902182014 | 26 | 270 | 0.0 | 0.0 | 0.00 | 4.34 | 0.00 | 80 | 1003.0 |
| 20260902180758 | 26 | 270 | 0.0 | 0.0 | 0.00 | 4.34 | 0.00 | 82 | 1002.0 |
| 20260902180514 | 26 | 270 | 0.0 | 0.0 | 0.00 | 4.34 | 0.00 | 83 | 1002.0 |
| 20260902175014 | 26 | 270 | 0.0 | 0.0 | 0.00 | 4.34 | 0.00 | 84 | 1003.0 |
| 20260902173758 | 25 | 270 | 0.0 | 0.0 | 0.00 | 4.34 | 0.00 | 84 | 1003.0 |
| 20260902173514 | 25 | 270 | 0.0 | 0.0 | 0.00 | 4.34 | 0.00 | 84 | 1003.0 |
| 20260902172013 | 25 | 270 | 0.0 | 0.0 | 0.00 | 4.34 | 0.00 | 84 | 1003.0 |
| 20260902170759 | 25 | 270 | 0.0 | 0.0 | 0.00 | 4.34 | 0.00 | 83 | 1003.0 |
| 20260902170514 | 25 | 270 | 0.0 | 0.0 | 0.00 | 4.34 | 0.00 | 83 | 1003.0 |
| 20260902165012 | 25 | 270 | 0.0 | 0.0 | 0.00 | 4.34 | 0.00 | 81 | 1003.0 |
| 20260902163759 | 25 | 270 | 0.0 | 0.0 | 0.00 | 4.34 | 0.00 | 80 | 1003.0 |
| 20260902163514 | 25 | 270 | 0.0 | 0.0 | 0.00 | 4.34 | 0.00 | 79 | 1003.0 |
| 20260902162013 | 25 | 270 | 0.0 | 0.0 | 0.00 | 4.34 | 0.00 | 79 | 1003.0 |
| 20260902160757 | 25 | 270 | 0.0 | 0.0 | 0.00 | 4.34 | 0.00 | 77 | 1003.0 |
| 20260902160512 | 25 | 270 | 0.0 | 0.0 | 0.00 | 4.34 | 0.00 | 77 | 1003.0 |
| 20260902155013 | 25 | 270 | 0.0 | 0.0 | 0.00 | 4.34 | 0.00 | 78 | 1003.0 |
| 20260902153757 | 25 | 270 | 0.0 | 0.0 | 0.00 | 4.34 | 0.00 | 79 | 1003.0 |
| 20260902153513 | 25 | 270 | 0.0 | 0.0 | 0.00 | 4.34 | 0.00 | 79 | 1003.0 |
| 20260902152012 | 25 | 270 | 0.0 | 0.0 | 0.00 | 4.34 | 0.00 | 79 | 1003.0 |
| 20260902150758 | 25 | 270 | 0.0 | 0.0 | 0.00 | 4.34 | 0.00 | 79 | 1004.0 |
| 20260902150514 | 25 | 270 | 0.0 | 0.0 | 0.00 | 4.34 | 0.00 | 80 | 1004.0 |
| 20260902145013 | 25 | 270 | 0.0 | 0.0 | 0.00 | 4.34 | 4.34 | 83 | 1003.0 |
| 20260902143759 | 25 | 270 | 0.0 | 0.0 | 0.00 | 4.34 | 4.34 | 83 | 1003.0 |
| 20260902143514 | 25 | 270 | 0.0 | 0.0 | 0.00 | 4.34 | 4.34 | 83 | 1003.0 |
| 20260902142013 | 25 | 270 | 0.0 | 0.0 | 0.43 | 4.34 | 4.34 | 84 | 1003.0 |
| 20260902140759 | 25 | 270 | 0.0 | 0.0 | 3.17 | 4.34 | 4.34 | 85 | 1004.0 |
| 20260902140514 | 25 | 270 | 0.0 | 0.0 | 3.61 | 4.34 | 4.34 | 86 | 1004.0 |
| 20260902135014 | 24 | 270 | 0.0 | 0.0 | 4.34 | 4.34 | 4.34 | 86 | 1003.0 |
| 20260902133758 | 24 | 270 | 0.0 | 0.0 | 4.34 | 4.34 | 4.34 | 84 | 1004.0 |
| 20260902133512 | 24 | 270 | 0.0 | 0.0 | 4.34 | 4.34 | 4.34 | 84 | 1004.0 |
| 20260902132012 | 25 | 315 | 1.6 | 3.2 | 3.91 | 3.91 | 3.91 | 78 | 1005.0 |
| 20260902130757 | 27 | 292 | 4.8 | 9.7 | 1.17 | 1.17 | 1.17 | 72 | 1004.0 |
| 20260902130512 | 27 | 146 | 4.8 | 9.7 | 0.74 | 0.74 | 0.74 | 69 | 1004.0 |
| 20260902125012 | 28 | 135 | 0.0 | 3.2 | 0.00 | 0.00 | 0.00 | 54 | 1004.0 |
| 20260902123757 | 28 | 135 | 4.8 | 9.7 | 0.00 | 0.00 | 0.00 | 53 | 1004.0 |
| 20260902123512 | 29 | 135 | 4.8 | 9.7 | 0.00 | 0.00 | 0.00 | 52 | 1004.0 |
| 20260902122013 | 30 | 135 | 0.0 | 4.8 | 0.00 | 0.10 | 0.00 | 45 | 1004.0 |
| 20260902120758 | 30 | 135 | 1.6 | 4.8 | 0.00 | 0.10 | 0.00 | 45 | 1004.0 |
| 20260902120513 | 30 | 135 | 0.0 | 8.0 | 0.00 | 0.10 | 0.00 | 44 | 1004.0 |
| 20260902115012 | 30 | 135 | 0.0 | 0.0 | 0.00 | 0.10 | 0.00 | 42 | 1004.0 |
| 20260902113757 | 30 | 135 | 0.0 | 0.0 | 0.00 | 0.10 | 0.00 | 43 | 1004.0 |
| 20260902113512 | 30 | 135 | 0.0 | 0.0 | 0.00 | 0.10 | 0.00 | 43 | 1004.0 |
| 20260902112013 | 30 | 135 | 0.0 | 0.0 | 0.00 | 0.33 | 0.00 | 42 | 1004.0 |
| 20260902110757 | 30 | 135 | 0.0 | 0.0 | 0.00 | 0.97 | 0.00 | 42 | 1004.0 |
| 20260902110512 | 30 | 135 | 0.0 | 0.0 | 0.00 | 0.97 | 0.00 | 42 | 1004.0 |
| 20260902105012 | 30 | 135 | 0.0 | 0.0 | 0.00 | 0.97 | 0.00 | 41 | 1003.0 |
| 20260902103756 | 31 | 135 | 0.0 | 0.0 | 0.00 | 1.07 | 0.00 | 39 | 1003.0 |
| 20260902103511 | 31 | 135 | 0.0 | 0.0 | 0.00 | 1.07 | 0.00 | 38 | 1003.0 |
| 20260902102012 | 31 | 135 | 0.0 | 0.0 | 0.00 | 1.07 | 0.00 | 38 | 1004.0 |
| 20260902100757 | 31 | 135 | 0.0 | 0.0 | 0.00 | 1.07 | 0.00 | 37 | 1004.0 |
| 20260902100512 | 31 | 135 | 0.0 | 0.0 | 0.00 | 1.07 | 0.00 | 36 | 1004.0 |
| 20260902095012 | 31 | 135 | 0.0 | 0.0 | 0.00 | 1.07 | 0.00 | 35 | 1003.0 |
| 20260902093756 | 31 | 135 | 0.0 | 0.0 | 0.00 | 1.07 | 0.00 | 34 | 1003.0 |
| 20260902093511 | 31 | 135 | 0.0 | 0.0 | 0.00 | 1.07 | 0.00 | 34 | 1003.0 |
| 20260902092012 | 31 | 135 | 0.0 | 0.0 | 0.00 | 1.07 | 0.00 | 35 | 1003.0 |
| 20260902090758 | 31 | 135 | 0.0 | 4.8 | 0.00 | 1.07 | 0.00 | 35 | 1003.0 |
| 20260902090513 | 31 | 135 | 0.0 | 0.0 | 0.00 | 1.07 | 0.00 | 35 | 1003.0 |
| 20260902085012 | 31 | 135 | 0.0 | 9.7 | 0.00 | 1.07 | 0.00 | 35 | 1003.0 |
| 20260902083756 | 31 | 135 | 4.8 | 9.7 | 0.00 | 1.07 | 0.00 | 34 | 1003.0 |
| 20260902083512 | 31 | 135 | 8.0 | 9.7 | 0.00 | 1.07 | 0.00 | 34 | 1003.0 |
| 20260902082011 | 31 | 135 | 0.0 | 3.2 | 0.00 | 1.07 | 0.00 | 35 | 1003.0 |
| 20260902080758 | 31 | 135 | 3.2 | 4.8 | 0.00 | 1.07 | 0.00 | 35 | 1003.0 |
| 20260902080513 | 31 | 135 | 0.0 | 3.2 | 0.00 | 1.07 | 0.00 | 36 | 1003.0 |
| 20260902075012 | 31 | 135 | 3.2 | 3.2 | 0.00 | 1.07 | 0.00 | 38 | 1004.0 |
| 20260902073756 | 31 | 135 | 0.0 | 4.8 | 0.00 | 1.07 | 0.00 | 38 | 1004.0 |
| 20260902073512 | 31 | 135 | 3.2 | 3.2 | 0.00 | 1.07 | 0.00 | 38 | 1004.0 |
| 20260902072014 | 31 | 135 | 0.0 | 4.8 | 0.00 | 1.07 | 0.00 | 41 | 1003.0 |
| 20260902070757 | 31 | 135 | 8.0 | 14.5 | 0.00 | 1.07 | 0.00 | 40 | 1003.0 |
| 20260902070512 | 31 | 135 | 3.2 | 12.9 | 0.00 | 1.07 | 0.00 | 40 | 1003.0 |
| 20260902065011 | 32 | 135 | 4.8 | 4.8 | 0.00 | 1.07 | 0.00 | 32 | 1003.0 |
| 20260902063756 | 33 | 135 | 1.6 | 4.8 | 0.00 | 1.07 | 0.00 | 31 | 1003.0 |
| 20260902063511 | 33 | 135 | 0.0 | 4.8 | 0.00 | 1.07 | 0.00 | 31 | 1003.0 |
| 20260902062012 | 33 | 135 | 1.6 | 3.2 | 0.00 | 1.07 | 0.00 | 29 | 1003.0 |
| 20260902060758 | 34 | 135 | 0.0 | 3.2 | 0.00 | 1.07 | 0.00 | 28 | 1003.0 |
| 20260902060512 | 34 | 135 | 0.0 | 0.0 | 0.00 | 1.07 | 0.00 | 28 | 1003.0 |
| 20260902055013 | 34 | 135 | 0.0 | 3.2 | 0.00 | 1.07 | 0.00 | 27 | 1003.0 |
| 20260902053757 | 34 | 135 | 0.0 | 3.2 | 0.00 | 1.07 | 0.00 | 28 | 1003.0 |
| 20260902053512 | 34 | 135 | 0.0 | 3.2 | 0.00 | 1.07 | 0.00 | 28 | 1003.0 |
| 20260902050757 | 35 | 315 | 0.0 | 3.2 | 0.00 | 1.07 | 0.00 | 27 | 1004.0 |
| 20260902050512 | 35 | 315 | 0.0 | 0.0 | 0.00 | 1.07 | 0.00 | 27 | 1004.0 |
| 20260902045014 | 36 | 315 | 1.6 | 3.2 | 0.00 | 1.07 | 0.00 | 26 | 1003.0 |
| 20260902043759 | 36 | 315 | 0.0 | 0.0 | 0.00 | 1.07 | 0.00 | 21 | 1003.0 |
| 20260902043514 | 36 | 315 | 0.0 | 0.0 | 0.00 | 1.07 | 0.00 | 21 | 1003.0 |
| 20260902042015 | 35 | 315 | 0.0 | 0.0 | 0.00 | 1.07 | 0.00 | 25 | 1004.0 |
| 20260902040800 | 34 | 315 | 0.0 | 0.0 | 0.00 | 1.07 | 0.00 | 23 | 1004.0 |
| 20260902040516 | 34 | 315 | 3.2 | 8.0 | 0.00 | 1.07 | 0.00 | 23 | 1004.0 |
| 20260902033759 | 35 | 315 | 3.2 | 4.8 | 0.00 | 1.07 | 0.00 | 21 | 1004.0 |
| 20260902033515 | 35 | 315 | 0.0 | 4.8 | 0.00 | 1.07 | 0.00 | 22 | 1004.0 |
| 20260902030800 | 35 | 315 | 0.0 | 4.8 | 0.00 | 1.07 | 0.00 | 24 | 1004.0 |
| 20260902030515 | 35 | 315 | 0.0 | 3.2 | 0.00 | 1.07 | 0.00 | 26 | 1004.0 |
| 20260902023759 | 33 | 315 | 3.2 | 8.0 | 0.00 | 1.07 | 0.00 | 29 | 1004.0 |
| 20260902023515 | 33 | 315 | 0.0 | 0.0 | 0.00 | 1.07 | 0.00 | 30 | 1004.0 |
| 20260902020759 | 32 | 315 | 0.0 | 3.2 | 0.00 | 1.07 | 0.00 | 32 | 1005.0 |
| 20260902020514 | 32 | 315 | 1.6 | 4.8 | 0.00 | 1.07 | 0.00 | 31 | 1005.0 |
| 20260902015014 | 33 | 315 | 0.0 | 0.0 | 0.00 | 1.07 | 0.00 | 29 | 1005.0 |
| 20260902013758 | 34 | 315 | 0.0 | 0.0 | 0.00 | 1.07 | 0.00 | 28 | 1005.0 |
| 20260902012013 | 33 | 315 | 0.0 | 0.0 | 0.00 | 1.07 | 0.00 | 31 | 1005.0 |
| 20260902010759 | 33 | 315 | 0.0 | 0.0 | 0.00 | 1.07 | 0.00 | 33 | 1005.0 |
| 20260902010515 | 32 | 315 | 0.0 | 0.0 | 0.00 | 1.07 | 0.00 | 33 | 1005.0 |
| 20260902005014 | 32 | 315 | 0.0 | 11.3 | 0.00 | 1.07 | 0.00 | 34 | 1005.0 |
| 20260902003758 | 32 | 315 | 0.0 | 0.0 | 0.00 | 1.07 | 0.00 | 38 | 1005.0 |
| 20260902000759 | 31 | 315 | 0.0 | 0.0 | 0.00 | 1.07 | 0.00 | 42 | 1005.0 |
| 20260901233759 | 30 | 315 | 0.0 | 4.8 | 0.00 | 1.07 | 0.00 | 45 | 1004.0 |
| 20260901233516 | 30 | 315 | 0.0 | 0.0 | 0.00 | 1.07 | 0.00 | 46 | 1004.0 |
| 20260901230758 | 29 | 315 | 0.0 | 0.0 | 0.00 | 1.07 | 0.00 | 48 | 1004.0 |
| 20260901230513 | 29 | 315 | 0.0 | 0.0 | 0.00 | 1.07 | 0.00 | 48 | 1004.0 |
| 20260901225013 | 29 | 315 | 0.0 | 0.0 | 0.00 | 1.07 | 0.00 | 48 | 1005.0 |
| 20260901223759 | 28 | 315 | 0.0 | 0.0 | 0.00 | 1.07 | 0.00 | 50 | 1005.0 |
| 20260901220758 | 28 | 315 | 0.0 | 0.0 | 0.00 | 1.07 | 0.00 | 56 | 1005.0 |
| 20260901213758 | 27 | 315 | 0.0 | 0.0 | 0.00 | 1.07 | 0.00 | 60 | 1005.0 |
| 20260901210758 | 26 | 225 | 0.0 | 0.0 | 0.00 | 1.07 | 0.00 | 65 | 1005.0 |